Hourly Weather Rudaw

Today, 15 April, Thursday

Time Temperature Precipitation Wind Pressure Humidity
00:00 -1°C° 0.2 mm 6 mps 759 mmHg 87%
01:00 -1°C° 0 mm 6 mps 759 mmHg 92%
02:00 -1°C° 0.4 mm 6 mps 759 mmHg 93%
03:00 -1°C° 0.4 mm 6 mps 759 mmHg 95%
04:00 -1°C° 0.4 mm 6 mps 758 mmHg 96%
05:00 -1°C° 0.7 mm 6 mps 758 mmHg 96%
06:00 -1°C° 0.7 mm 6 mps 758 mmHg 96%
07:00 -1°C° 0.7 mm 6 mps 758 mmHg 97%
08:00 -1°C° 0.8 mm 6 mps 758 mmHg 97%
09:00 -1°C° 0.8 mm 6 mps 758 mmHg 97%
10:00 -1°C° 0.8 mm 6 mps 758 mmHg 97%
11:00 -1°C° 0.7 mm 6 mps 758 mmHg 97%
12:00 -1°C° 0.7 mm 6 mps 758 mmHg 97%
13:00 -1°C° 0.7 mm 6 mps 758 mmHg 97%
14:00 -1°C° 0.6 mm 6 mps 757 mmHg 97%
15:00 +1°C° 0.6 mm 5 mps 757 mmHg 97%
16:00 +1°C° 0.6 mm 5 mps 757 mmHg 97%
17:00 +2°C° 0.4 mm 5 mps 757 mmHg 96%
18:00 +2°C° 0.4 mm 5 mps 757 mmHg 95%
19:00 +2°C° 0.4 mm 5 mps 757 mmHg 93%
20:00 +2°C° 0.1 mm 5 mps 757 mmHg 93%
21:00 +2°C° 0.1 mm 5 mps 758 mmHg 93%
22:00 +2°C° 0.1 mm 5 mps 758 mmHg 93%
23:00 +3°C° 0.3 mm 4 mps 757 mmHg 94%

Tomorrow, 16 April, Friday

Time Temperature Precipitation Wind Pressure Humidity
00:00 +3°C° 0.3 mm 4 mps 757 mmHg 95%
01:00 +3°C° 0.3 mm 4 mps 757 mmHg 95%
02:00 +3°C° 0.3 mm 4 mps 757 mmHg 94%
03:00 +3°C° 0.3 mm 4 mps 757 mmHg 93%
04:00 +1°C° 0.3 mm 4 mps 757 mmHg 92%
05:00 +1°C° 0 mm 4 mps 757 mmHg 92%
06:00 +1°C° 0 mm 4 mps 757 mmHg 91%
07:00 +1°C° 0 mm 4 mps 757 mmHg 90%
08:00 +1°C° 0 mm 4 mps 757 mmHg 91%
09:00 +1°C° 0 mm 4 mps 757 mmHg 93%
10:00 +1°C° 0 mm 5 mps 757 mmHg 94%
11:00 +3°C° 0.1 mm 4 mps 757 mmHg 94%
12:00 +3°C° 0.1 mm 4 mps 757 mmHg 93%
13:00 +3°C° 0.1 mm 4 mps 757 mmHg 93%
14:00 +3°C° 0.4 mm 4 mps 757 mmHg 94%
15:00 +3°C° 0.4 mm 4 mps 757 mmHg 94%
16:00 +3°C° 0.4 mm 4 mps 757 mmHg 95%
17:00 +3°C° 0.3 mm 4 mps 757 mmHg 95%
18:00 +3°C° 0.3 mm 3 mps 757 mmHg 96%
19:00 +3°C° 0.3 mm 3 mps 758 mmHg 97%
20:00 +3°C° 0 mm 3 mps 758 mmHg 97%
21:00 +3°C° 0 mm 3 mps 758 mmHg 98%
22:00 +4°C° 0 mm 2 mps 758 mmHg 98%
23:00 +4°C° 0 mm 2 mps 758 mmHg 98%

Day after tomorrow, 17 April, Saturday

Time Temperature Precipitation Wind Pressure Humidity
00:00 +4°C° 0 mm 2 mps 757 mmHg 98%
01:00 +5°C° 0 mm 2 mps 757 mmHg 98%
02:00 +5°C° 0 mm 2 mps 757 mmHg 98%
03:00 +4°C° 0 mm 3 mps 757 mmHg 98%
04:00 +4°C° 0 mm 3 mps 757 mmHg 98%
05:00 +4°C° 0 mm 3 mps 757 mmHg 98%
06:00 +5°C° 0 mm 3 mps 757 mmHg 97%
07:00 +5°C° 0 mm 3 mps 757 mmHg 97%
08:00 +7°C° 1.1 mm 2 mps 758 mmHg 96%
09:00 +7°C° 1.1 mm 2 mps 758 mmHg 96%
10:00 +7°C° 1.1 mm 2 mps 758 mmHg 95%
11:00 +8°C° 0.3 mm 2 mps 758 mmHg 92%
12:00 +9°C° 0.3 mm 2 mps 758 mmHg 88%
13:00 +10°C° 0.3 mm 2 mps 758 mmHg 84%
14:00 +10°C° 0.2 mm 2 mps 758 mmHg 80%
15:00 +11°C° 0.2 mm 3 mps 758 mmHg 76%
16:00 +12°C° 0.2 mm 3 mps 758 mmHg 72%
17:00 +11°C° 0.3 mm 3 mps 758 mmHg 77%
18:00 +10°C° 0.3 mm 3 mps 758 mmHg 83%
19:00 +9°C° 0.3 mm 3 mps 758 mmHg 88%
20:00 +8°C° 0.1 mm 3 mps 758 mmHg 89%
21:00 +8°C° 0.1 mm 3 mps 758 mmHg 90%
22:00 +7°C° 0.1 mm 3 mps 759 mmHg 92%
23:00 +7°C° 0 mm 3 mps 759 mmHg 91%

18 April, Sunday

Time Temperature Precipitation Wind Pressure Humidity
00:00 +7°C° 0 mm 3 mps 759 mmHg 91%
01:00 +7°C° 0 mm 3 mps 759 mmHg 91%
02:00 +7°C° 0 mm 3 mps 759 mmHg 91%
03:00 +7°C° 0 mm 2 mps 759 mmHg 91%
04:00 +7°C° 0 mm 2 mps 759 mmHg 92%
05:00 +7°C° 0.1 mm 2 mps 759 mmHg 92%
06:00 +7°C° 0.1 mm 2 mps 759 mmHg 92%
07:00 +7°C° 0.1 mm 2 mps 759 mmHg 91%
08:00 +8°C° 0.3 mm 2 mps 759 mmHg 91%
09:00 +8°C° 0.3 mm 2 mps 759 mmHg 91%
10:00 +9°C° 0.3 mm 3 mps 759 mmHg 91%
11:00 +9°C° 0.1 mm 3 mps 759 mmHg 88%
12:00 +10°C° 0.1 mm 3 mps 759 mmHg 85%
13:00 +11°C° 0.1 mm 3 mps 758 mmHg 81%
14:00 +11°C° 0.1 mm 3 mps 758 mmHg 79%
15:00 +12°C° 0.1 mm 3 mps 758 mmHg 76%
16:00 +12°C° 0.1 mm 3 mps 758 mmHg 73%
17:00 +11°C° 0.1 mm 3 mps 758 mmHg 79%
18:00 +10°C° 0.1 mm 3 mps 758 mmHg 84%
19:00 +9°C° 0.1 mm 2 mps 758 mmHg 90%
20:00 +9°C° 0.2 mm 2 mps 758 mmHg 92%
21:00 +9°C° 0.2 mm 2 mps 758 mmHg 94%
22:00 +9°C° 0.2 mm 2 mps 758 mmHg 96%
23:00 +9°C° 0.1 mm 2 mps 758 mmHg 96%

19 April, Monday

Time Temperature Precipitation Wind Pressure Humidity
00:00 +9°C° 0.1 mm 2 mps 758 mmHg 96%
01:00 +9°C° 0.1 mm 2 mps 758 mmHg 96%
02:00 +8°C° 0.1 mm 2 mps 758 mmHg 96%
03:00 +8°C° 0.1 mm 2 mps 758 mmHg 96%
04:00 +7°C° 0.1 mm 2 mps 758 mmHg 96%
05:00 +8°C° 0.1 mm 3 mps 758 mmHg 94%
06:00 +8°C° 0.1 mm 4 mps 758 mmHg 92%
07:00 +10°C° 0.1 mm 4 mps 758 mmHg 90%
08:00 +10°C° 0.1 mm 5 mps 758 mmHg 82%
09:00 +12°C° 0.1 mm 5 mps 758 mmHg 74%
10:00 +13°C° 0.1 mm 6 mps 758 mmHg 66%
11:00 +14°C° 0.1 mm 6 mps 758 mmHg 61%
12:00 +14°C° 0.1 mm 6 mps 758 mmHg 57%
13:00 +15°C° 0.1 mm 6 mps 758 mmHg 52%
14:00 +14°C° 0.1 mm 6 mps 758 mmHg 55%
15:00 +14°C° 0.1 mm 6 mps 758 mmHg 58%
16:00 +13°C° 0.1 mm 6 mps 758 mmHg 60%
17:00 +12°C° 0 mm 5 mps 758 mmHg 65%
18:00 +11°C° 0 mm 4 mps 758 mmHg 70%
19:00 +9°C° 0 mm 3 mps 757 mmHg 74%
20:00 +9°C° 0 mm 3 mps 758 mmHg 75%
21:00 +9°C° 0 mm 3 mps 758 mmHg 75%
22:00 +9°C° 0 mm 3 mps 758 mmHg 75%
23:00 +8°C° 0 mm 3 mps 758 mmHg 76%

20 April, Tuesday

Time Temperature Precipitation Wind Pressure Humidity
00:00 +8°C° 0 mm 3 mps 757 mmHg 77%
01:00 +8°C° 0 mm 3 mps 757 mmHg 78%
02:00 +8°C° 0 mm 3 mps 757 mmHg 80%
03:00 +7°C° 0 mm 3 mps 757 mmHg 81%
04:00 +7°C° 0 mm 3 mps 757 mmHg 83%
05:00 +7°C° 0 mm 3 mps 757 mmHg 80%
06:00 +8°C° 0 mm 3 mps 757 mmHg 76%
07:00 +8°C° 0 mm 4 mps 757 mmHg 72%
08:00 +10°C° 0 mm 4 mps 757 mmHg 67%
09:00 +10°C° 0 mm 4 mps 757 mmHg 62%
10:00 +11°C° 0 mm 4 mps 757 mmHg 57%
11:00 +12°C° 0 mm 3 mps 757 mmHg 54%
12:00 +13°C° 0 mm 3 mps 757 mmHg 50%
13:00 +13°C° 0 mm 3 mps 757 mmHg 47%
14:00 +13°C° 0 mm 3 mps 756 mmHg 50%
15:00 +13°C° 0 mm 3 mps 756 mmHg 54%
16:00 +13°C° 0 mm 2 mps 756 mmHg 57%
17:00 +13°C° 0 mm 2 mps 756 mmHg 59%
18:00 +12°C° 0 mm 2 mps 756 mmHg 60%
19:00 +10°C° 0 mm 2 mps 756 mmHg 62%
20:00 +10°C° 0 mm 2 mps 756 mmHg 65%
21:00 +10°C° 0 mm 2 mps 756 mmHg 67%
22:00 +9°C° 0 mm 2 mps 756 mmHg 69%
23:00 +9°C° 0 mm 2 mps 755 mmHg 70%
Show more